Miscellaneous Local Product
Issued by NWS Hastings, NE

Home | Current Version | Previous Version | Graphics & Text | Print | Product List | Glossary On
Versions: 1 2 3 4 5 6 7 8 9 10 11 12 13 14 15 16 17 18 19 20 21 22 23 24 25 26 27 28 29 30 31 32 33 34 35 36 37 38 39 40 41 42 43 44 45 46 47 48 49 50
035
AXUS43 KGID 031002
MISGRI

GID CWA HOURLY WEATHER ROUNDUP
NATIONAL WEATHER SERVICE HASTINGS NE
500 AM CDT TUE MAY 03 2016

NOTE: "FAIR" INDICATES FEW OR NO CLOUDS BELOW 12,000 FEET WITH NO
SIGNIFICANT WEATHER AND/OR OBSTRUCTIONS TO VISIBILITY.

...SOUTH CENTRAL NEBRASKA...

CITY           SKY/WX    TMP DP  RH WIND       PRES   REMARKS
GRAND ISLAND   CLEAR     43  36  76 SE5       30.05R
HASTINGS       CLEAR     46  36  68 S5        30.03F
KEARNEY        CLOUDY    46  39  76 S5        30.03F
ORD            CLEAR     38  36  92 CALM      30.04R
YORK           CLEAR     45  37  76 S5        30.05S
AURORA         CLEAR     42  38  86 S3        30.05S
LEXINGTON      PTCLDY    41  38  89 CALM      30.04S
HOLDREGE       CLOUDY    46  42  86 CALM      30.04S
HEBRON         CLEAR     39  38  97 CALM      30.05S

...NEBRASKA PANHANDLE...

CITY           SKY/WX    TMP DP  RH WIND       PRES   REMARKS
CHADRON        CLEAR     37  34  89 CALM      30.08S
ALLIANCE       CLEAR     34  33  96 CALM      30.07R
SCOTTSBLUFF    CLEAR     39  34  82 NW8       30.10R WCI  33
SIDNEY         CLEAR     39  34  82 NW14      30.07R WCI  31

...WESTERN AND NORTH CENTRAL NEBRASKA...

CITY           SKY/WX    TMP DP  RH WIND       PRES   REMARKS
VALENTINE      CLEAR     36  35  96 W7        30.06S WCI  30
AINSWORTH      CLEAR     38  37  99 W6        30.05S WCI  33
ONEILL         CLEAR     44  40  85 N7        30.05R
BROKEN BOW     CLEAR     37  36  96 N5        30.04R WCI  33
IMPERIAL       CLOUDY    44  42  93 NE6       30.05S
NORTH PLATTE   CLEAR     40  39  97 CALM      30.04R
MCCOOK         MOCLDY    41  40  96 NW7       30.04R

...EASTERN NEBRASKA...

CITY           SKY/WX    TMP DP  RH WIND       PRES   REMARKS
NORFOLK        PTCLDY    40  37  89 CALM      30.04R
SO SIOUX CITY  CLEAR     43  38  82 CALM      30.03R
TEKAMAH        CLEAR     44  41  89 CALM      30.04S
COLUMBUS       CLEAR     37  30  75 CALM      30.05S
ALBION         PTCLDY    38  35  91 N3        30.05S
OMAHA EPPLEY   CLEAR     45  42  89 SE3       30.05S
MILLARD        CLEAR     42  40  95 CALM      30.05R FOG
LINCOLN        PTCLDY    42  40  92 CALM      30.06F
NEBRASKA CITY  CLEAR     45  42  88 W10       30.05S
BEATRICE       CLEAR     41  40  95 CALM      30.06S
FALLS CITY     MOCLDY    44  41  89 CALM      30.06S

...NORTHERN KANSAS...

CITY           SKY/WX    TMP DP  RH WIND       PRES   REMARKS
GOODLAND       MOCLDY    44  39  82 W5        30.04R
HILL CITY      LGT RAIN  52  40  63 NW10      30.03S
NORTON         DRIZZLE   48  41  76 N8        30.02
PHILLIPSBURG   MOCLDY    46  43  87 CALM      30.04S
SMITH CENTER   CLOUDY    45  41  87 SE5       30.03R
BELOIT         CLOUDY    45  37  76 E5        30.03S
HAYS           CLOUDY    45  34  65 CALM      30.03R
RUSSELL        CLOUDY    46  41  82 S10       30.01S
CONCORDIA      PTCLDY    40  37  89 E3        30.05S
SALINA         CLEAR     42  39  89 SE7       30.05S
TOPEKA         PTCLDY    41  40  96 CALM      30.07S



USA.gov is the U.S. government's official web portal to all federal, state and local government web resources and services.